Location: Cabrera Baja
(40.4089°N, 4.3354°W)
Time: 03:21:21
(UTC+00:00)

Meteor 1-10 Rocket - Pass Details

Date: 14 July 2020
Orbit: 835 x 911 km, 81.3° (Epoch: 03 August)

Event Time Altitude Azimuth Distance (km) Brightness Sun altitude
Rises 00:27:11 0° 346° (NNW) 3,396 8.5 -28.0°
Reaches altitude 10° 00:29:38 10° 342° (NNW) 2,455 7.5 -27.9°
Enters shadow 00:34:49 56° 275° (W) 991 4.4 -27.9°
